Location: St. Andrews
(45.0670°N, 67.0330°W)
Time: 06:18:13
(UTC-04:00)

Amateur Radio Satellites - All Passes

Search period start: 14 December 2017 05:48
Search period end: 15 December 2017 05:48
Location: St. Andrews, 45.0670°N, 67.0330°W

Satellite Date Start Highest point End Downlink Frequencies (MHz)
Time Altitude Azimuth
AO-85 14 Dec 05:49:36 05:53:31 26° 42° (NE) 05:57:40 145.980
XW-2C 14 Dec 05:54:06 05:57:17 24° 94° (E) 06:00:26 145.795 - 145.815
STRAND 1 14 Dec 05:55:13 05:59:14 24° 63° (ENE) 06:03:14 437.568
YUBILEINY 14 Dec 05:58:39 06:04:36 19° 303° (WNW) 06:10:38 435.215
HO-68 14 Dec 06:07:45 06:12:12 17° 88° (E) 06:16:36 435.675
CUTE 1.7 + AOD 2 14 Dec 06:12:03 06:12:53 10° 87° (E) 06:13:42 437.475
BEESAT 2 14 Dec 06:19:50 06:23:53 72° 236° (WSW) 06:27:49 435.950
CUTE-I 14 Dec 06:21:29 06:26:29 39° 98° (E) 06:31:26 437.470
KKS-1 14 Dec 06:27:20 06:28:46 11° 271° (W) 06:30:12 437.445
DOVE 4 14 Dec 06:27:36 06:31:32 29° 294° (WNW) 06:35:16 437.250
LilacSat-2 14 Dec 06:29:06 06:32:59 67° 101° (E) 06:36:50 437.200
AO-7 14 Dec 06:35:03 06:40:56 22° 313° (NW) 06:46:49 .
XW-2D 14 Dec 06:44:26 06:48:19 84° 284° (WNW) 06:52:10 145.860 - 145.880
FO-29 14 Dec 06:44:29 06:51:10 33° 60° (ENE) 06:57:50 435.910
CUBEBUG 2 14 Dec 06:50:46 06:53:35 17° 92° (E) 06:56:26 437.445
NUDT-PHONESAT 14 Dec 06:52:02 06:55:49 79° 102° (ESE) 06:59:34 437.300
UWE-3 14 Dec 06:54:05 06:54:27 10° 88° (E) 06:54:51 435.000/436.395/437.385
KAITUO 1B 14 Dec 06:54:31 06:58:20 89° 99° (E) 07:02:08 145.475/437.950
XW-2B 14 Dec 07:00:22 07:04:10 56° 286° (WNW) 07:07:56 145.730 - 145.750
XW-2F 14 Dec 07:13:12 07:16:50 42° 288° (WNW) 07:20:27 145.980 - 146.000
NO-84 14 Dec 07:17:07 07:20:02 48° 138° (SE) 07:23:13 435.350 FM
ZACube-1 14 Dec 07:20:12 07:21:05 11° 88° (E) 07:21:58 437.345
SEEDS 14 Dec 07:23:27 07:27:26 37° 97° (E) 07:31:22 437.485
XW-2C 14 Dec 07:28:07 07:31:25 27° 291° (WNW) 07:34:42 145.795 - 145.815
AO-85 14 Dec 07:29:32 07:34:14 58° 239° (WSW) 07:39:16 145.980
STRAND 1 14 Dec 07:33:08 07:38:06 50° 260° (W) 07:43:05 437.568
XW-2A 14 Dec 07:37:38 07:40:16 20° 94° (E) 07:42:53 145.665 - 145.685
AAUSAT CUBESAT 2 14 Dec 07:44:36 07:48:12 28° 95° (E) 07:51:47 437.432
CUTE 1.7 + AOD 2 14 Dec 07:44:56 07:49:15 78° 283° (WNW) 07:53:31 437.475
AO-73 14 Dec 07:52:28 07:55:48 21° 93° (E) 07:59:10 145.935
HO-68 14 Dec 07:53:39 08:00:53 88° 104° (ESE) 08:08:03 435.675
CUTE-I 14 Dec 08:01:46 08:06:24 31° 295° (WNW) 08:11:00 437.470
LilacSat-2 14 Dec 08:05:20 08:06:42 12° 299° (WNW) 08:08:04 437.200
CUBEBUG 2 14 Dec 08:26:22 08:30:26 47° 288° (WNW) 08:34:36 437.445
UWE-3 14 Dec 08:27:08 08:31:26 81° 284° (WNW) 08:35:50 435.000/436.395/437.385
FO-29 14 Dec 08:27:57 08:35:38 66° 259° (W) 08:43:28 435.910
ZACube-1 14 Dec 08:53:31 08:57:52 80° 286° (WNW) 09:02:18 437.345
DELFI C3 14 Dec 08:53:56 08:55:11 11° 89° (E) 08:56:25 145.870
NO-84 14 Dec 08:54:38 08:57:26 27° 338° (NNW) 09:00:27 435.350 FM
O/OREOS (USA 219) 14 Dec 08:54:41 08:59:15 68° 110° (ESE) 09:03:47 437.305
SEEDS 14 Dec 08:59:36 09:02:53 22° 294° (WNW) 09:06:08 437.485
TIGRISAT 14 Dec 09:06:42 09:10:53 53° 72° (ENE) 09:15:02 435.000
UNISAT 6 14 Dec 09:09:45 09:14:00 64° 73° (ENE) 09:18:13 437.425
XW-2A 14 Dec 09:10:03 09:12:56 25° 291° (WNW) 09:15:47 145.665 - 145.685
Max Valier Satellite 14 Dec 09:11:09 09:12:29 12° 90° (E) 09:13:48 145.860
Oscar 11 14 Dec 09:14:17 09:18:41 83° 283° (WNW) 09:23:02 .
AAUSAT CUBESAT 2 14 Dec 09:20:02 09:23:35 28° 292° (WNW) 09:27:07 437.432
AO-73 14 Dec 09:28:06 09:32:09 40° 290° (WNW) 09:36:16 145.935
EO-88 14 Dec 09:39:32 09:42:00 17° 92° (E) 09:44:26 145.990 - 145.960
HO-68 14 Dec 09:42:37 09:47:43 22° 307° (NW) 09:52:50 435.675
AIST 2D 14 Dec 09:56:31 09:59:01 19° 67° (ENE) 10:01:32 435.315
PRISM 14 Dec 09:58:58 10:03:05 67° 74° (ENE) 10:07:14 437.425
FO-29 14 Dec 10:18:39 10:22:01 13° 278° (W) 10:25:26 435.910
POLYITAN 1 14 Dec 10:18:59 10:21:18 15° 62° (ENE) 10:23:38 437.675
DELFI C3 14 Dec 10:26:24 10:30:19 62° 286° (WNW) 10:34:11 145.870
NO-84 14 Dec 10:33:21 10:35:36 16° 360° (N) 10:37:58 435.350 FM
O/OREOS (USA 219) 14 Dec 10:36:07 10:39:08 17° 310° (NW) 10:42:08 437.305
Max Valier Satellite 14 Dec 10:42:57 10:46:37 54° 286° (WNW) 10:50:15 145.860
QB50P2 14 Dec 10:43:09 10:46:43 28° 67° (ENE) 10:50:18 145.880/145.840
TIGRISAT 14 Dec 10:45:26 10:47:54 15° 269° (W) 10:50:22 435.000
UNISAT 6 14 Dec 10:49:13 10:51:08 13° 271° (W) 10:53:02 437.425
DUCHIFAT 1 14 Dec 10:49:28 10:52:43 23° 66° (ENE) 10:56:00 145.980
EO-88 14 Dec 11:12:22 11:15:45 35° 289° (WNW) 11:19:06 145.990 - 145.960
NANOSAT C BR1 14 Dec 11:14:43 11:18:43 47° 71° (ENE) 11:22:45 145.865
ESTCUBE 1 14 Dec 11:16:38 11:20:27 26° 94° (E) 11:24:13 437.505/2401.250
nSIGHT-1 14 Dec 11:19:01 11:21:16 18° 135° (SE) 11:23:32 .
AIST 2D 14 Dec 11:28:52 11:31:58 29° 264° (W) 11:35:07 435.315
EO-79 14 Dec 11:29:31 11:33:42 78° 75° (ENE) 11:37:54 145.935-145.965
BUGSAT 1 14 Dec 11:32:44 11:35:17 16° 63° (ENE) 11:37:49 437.445
PRISM 14 Dec 11:37:15 11:38:47 12° 271° (W) 11:40:19 437.425
LO-87 14 Dec 11:44:10 11:47:42 69° 101° (ESE) 11:51:13 145.935 - 145.965
POLYITAN 1 14 Dec 11:52:29 11:56:37 59° 259° (W) 12:00:45 437.675
Oscar 19 14 Dec 11:52:48 11:56:34 21° 61° (ENE) 12:00:22 437.125/150
AO-91 14 Dec 11:53:26 11:56:32 17° 65° (ENE) 11:59:28 145.960
ISS 14 Dec 11:58:25 12:01:21 31° 140° (SE) 12:04:18 437.550
SPROUT 14 Dec 12:00:47 12:03:42 18° 92° (E) 12:06:35 437.525
AO-7 14 Dec 12:04:38 12:07:13 12° 35° (NE) 12:09:49 .
NO-84 14 Dec 12:10:44 12:13:48 25° 20° (NNE) 12:17:03 435.350 FM
YUBILEINY 14 Dec 12:11:02 12:14:48 13° 51° (NE) 12:18:33 435.215
QB50P2 14 Dec 12:18:49 12:22:27 28° 265° (W) 12:26:05 145.880/145.840
DUCHIFAT 1 14 Dec 12:24:24 12:28:12 34° 263° (W) 12:32:01 145.980
Gurwin Techsat 1B 14 Dec 12:30:04 12:34:44 33° 65° (ENE) 12:39:27 435.225
VELOX 1 14 Dec 12:51:55 12:56:00 36° 97° (E) 13:00:03 145.980
NANOSAT C BR1 14 Dec 12:52:00 12:54:41 16° 268° (W) 12:57:22 145.865
ESTCUBE 1 14 Dec 12:53:10 12:57:18 35° 291° (WNW) 13:01:24 437.505/2401.250
nSIGHT-1 14 Dec 12:53:57 12:57:09 71° 333° (NNW) 13:00:23 .
BUGSAT 1 14 Dec 13:06:22 13:10:16 47° 260° (W) 13:14:11 437.445
AO-91 14 Dec 13:27:48 13:32:40 59° 259° (W) 13:37:05 145.960
Oscar 19 14 Dec 13:30:25 13:35:28 58° 259° (W) 13:40:34 437.125/150
ISS 14 Dec 13:34:33 13:37:45 47° 338° (NNW) 13:40:57 437.550
UKube-1 14 Dec 13:35:15 13:37:36 14° 91° (E) 13:39:57 .
SPROUT 14 Dec 13:35:45 13:39:48 44° 289° (WNW) 13:43:50 437.525
NO-84 14 Dec 13:47:39 13:51:25 83° 218° (SW) 13:55:27 435.350 FM
DX 1 14 Dec 13:48:58 13:52:52 32° 97° (E) 13:56:44 434.975-435.025
AO-7 14 Dec 13:50:09 13:57:47 43° 59° (ENE) 14:05:27 .
RS-15 14 Dec 14:01:54 14:12:42 38° 106° (ESE) 14:23:26 29.354- 29.394
YUBILEINY 14 Dec 14:05:15 14:13:58 58° 76° (ENE) 14:22:33 435.215
Gurwin Techsat 1B 14 Dec 14:09:43 14:14:36 37° 263° (W) 14:19:32 435.225
M-CUBED/EXP-1 PRIME 14 Dec 14:11:06 14:15:08 38° 63° (ENE) 14:19:24 437.505
VELOX 1 14 Dec 14:28:43 14:32:16 24° 295° (WNW) 14:35:47 145.980
nSIGHT-1 14 Dec 14:30:57 14:33:44 26° 352° (N) 14:36:32 .
50 SAT 14 Dec 14:35:04 14:38:11 58° 286° (WNW) 14:41:16 437.505
ITAMSAT 1 14 Dec 14:41:54 14:46:47 42° 68° (ENE) 14:51:41 435.822/435.867
MOZHAYETS 4 14 Dec 14:45:21 14:48:43 19° 92° (E) 14:52:02
SO-50 14 Dec 14:54:48 14:57:32 16° 110° (ESE) 15:00:17 436.795
BEESAT 14 Dec 15:03:24 15:06:53 20° 93° (E) 15:10:21 436.000
UKube-1 14 Dec 15:09:44 15:13:59 58° 288° (WNW) 15:18:12 .
ISS 14 Dec 15:11:56 15:14:44 25° 358° (N) 15:17:33 437.550
DX 1 14 Dec 15:25:18 15:28:57 27° 294° (WNW) 15:32:34 434.975-435.025
NO-84 14 Dec 15:26:19 15:28:15 13° 234° (SW) 15:30:14 435.350 FM
ITUPSAT 1 14 Dec 15:30:52 15:35:16 35° 97° (E) 15:39:38 437.325
AO-7 14 Dec 15:42:25 15:50:24 51° 259° (WSW) 15:58:29 .
M-CUBED/EXP-1 PRIME 14 Dec 15:45:59 15:49:35 25° 261° (W) 15:53:21 437.505
DOVE 4 14 Dec 15:55:56 16:00:51 42° 70° (ENE) 16:05:39 437.250
YUBILEINY 14 Dec 16:02:41 16:10:18 34° 277° (W) 16:17:53 435.215
CUBESAT XI-V 14 Dec 16:07:17 16:11:32 32° 96° (E) 16:15:45 437.345
nSIGHT-1 14 Dec 16:07:42 16:10:34 29° 12° (NNE) 16:13:27 .
CUTE-I 14 Dec 16:09:00 16:11:17 13° 55° (NE) 16:13:34 437.470
RS-15 14 Dec 16:12:03 16:24:24 73° 310° (NW) 16:36:37 29.354- 29.394
MOZHAYETS 4 14 Dec 16:21:39 16:26:06 48° 289° (WNW) 16:30:31
ITAMSAT 1 14 Dec 16:22:00 16:26:23 27° 265° (W) 16:30:47 435.822/435.867
XW-2F 14 Dec 16:24:20 16:25:17 11° 61° (ENE) 16:26:13 145.980 - 146.000
SO-50 14 Dec 16:33:01 16:37:28 65° 308° (NW) 16:41:59 436.795
XW-2C 14 Dec 16:37:46 16:40:11 16° 65° (ENE) 16:42:38 145.795 - 145.815
KKS-1 14 Dec 16:37:59 16:39:50 12° 89° (E) 16:41:41 437.445
HO-68 14 Dec 16:39:35 16:44:13 19° 51° (NE) 16:48:51 435.675
BEESAT 14 Dec 16:40:19 16:44:55 49° 290° (WNW) 16:49:30 436.000
ISS 14 Dec 16:48:42 16:51:48 37° 18° (NNE) 16:54:54 437.550
CUTE 1.7 + AOD 2 14 Dec 17:07:00 17:08:01 11° 59° (ENE) 17:09:02 437.475
ITUPSAT 1 14 Dec 17:08:54 17:12:58 28° 295° (WNW) 17:17:02 437.325
LilacSat-2 14 Dec 17:12:31 17:16:07 42° 72° (ENE) 17:19:46 437.200
STARS 14 Dec 17:21:07 17:23:26 14° 91° (E) 17:25:43 437.465
O/OREOS (USA 219) 14 Dec 17:24:05 17:27:40 22° 53° (NE) 17:31:13 437.305
XW-2D 14 Dec 17:26:58 17:30:41 59° 74° (ENE) 17:34:28 145.860 - 145.880
NUDT-PHONESAT 14 Dec 17:32:26 17:35:57 44° 72° (ENE) 17:39:30 437.300
DOVE 4 14 Dec 17:34:09 17:38:36 27° 266° (W) 17:42:59 437.250
KAITUO 1B 14 Dec 17:35:44 17:39:22 52° 73° (ENE) 17:43:04 145.475/437.950
XW-2B 14 Dec 17:42:47 17:46:34 88° 77° (ENE) 17:50:24 145.730 - 145.750
nSIGHT-1 14 Dec 17:43:49 17:47:02 81° 213° (SSW) 17:50:15 .
CUBESAT XI-V 14 Dec 17:44:43 17:48:49 30° 293° (WNW) 17:52:53 437.345
CUTE-I 14 Dec 17:45:05 17:50:26 77° 73° (ENE) 17:55:50 437.470
CUBEBUG 2 14 Dec 17:51:05 17:53:56 18° 64° (ENE) 17:56:46 437.445
UWE-3 14 Dec 17:53:05 17:54:07 11° 60° (ENE) 17:55:09 435.000/436.395/437.385
XW-2F 14 Dec 17:55:04 17:58:48 69° 259° (W) 18:02:36 145.980 - 146.000
PCSat 14 Dec 18:05:56 18:09:51 21° 106° (ESE) 18:13:47 145.827
XW-2C 14 Dec 18:10:26 18:14:02 41° 262° (W) 18:17:40 145.795 - 145.815
KKS-1 14 Dec 18:12:27 18:16:52 70° 287° (WNW) 18:21:15 437.445
XW-2A 14 Dec 18:12:42 18:13:04 10° 62° (ENE) 18:13:25 145.665 - 145.685
SO-50 14 Dec 18:16:21 18:18:49 14° 330° (NNW) 18:21:17 436.795
SEEDS 14 Dec 18:16:42 18:20:29 33° 69° (ENE) 18:24:19 437.485
ZACube-1 14 Dec 18:18:30 18:19:28 11° 59° (ENE) 18:20:27 437.345
HO-68 14 Dec 18:23:42 18:30:53 80° 71° (ENE) 18:38:06 435.675
ISS 14 Dec 18:25:11 18:28:22 46° 216° (SW) 18:31:31 437.550
RS-15 14 Dec 18:28:31 18:39:23 34° 339° (NNW) 18:50:01 29.354- 29.394
AAUSAT CUBESAT 2 14 Dec 18:36:27 18:39:50 24° 67° (ENE) 18:43:13 437.432
Oscar 11 14 Dec 18:38:07 18:39:22 11° 59° (ENE) 18:40:36 .
CUTE 1.7 + AOD 2 14 Dec 18:38:53 18:43:08 88° 249° (WSW) 18:47:27 437.475
LilacSat-2 14 Dec 18:48:17 18:50:36 15° 269° (W) 18:52:56 437.200
AO-73 14 Dec 18:50:12 18:53:13 20° 65° (ENE) 18:56:15 145.935
STARS 14 Dec 18:55:51 19:00:09 60° 287° (WNW) 19:04:26 437.465
O/OREOS (USA 219) 14 Dec 19:03:00 19:07:17 44° 252° (WSW) 19:11:32 437.305
XW-2D 14 Dec 19:04:14 19:05:15 11° 271° (W) 19:06:15 145.860 - 145.880
NUDT-PHONESAT 14 Dec 19:08:05 19:10:01 14° 269° (W) 19:11:59 437.300
KAITUO 1B 14 Dec 19:12:06 19:13:39 12° 270° (W) 19:15:13 145.475/437.950
nSIGHT-1 14 Dec 19:21:31 19:22:46 12° 228° (SW) 19:23:59 .
UWE-3 14 Dec 19:25:48 19:29:57 81° 259° (WSW) 19:34:07 435.000/436.395/437.385
CUBEBUG 2 14 Dec 19:26:13 19:30:15 44° 261° (W) 19:34:15 437.445
CUTE-I 14 Dec 19:28:01 19:31:05 15° 271° (W) 19:34:08 437.470
BEESAT 3 14 Dec 19:34:02 19:36:22 15° 111° (ESE) 19:38:43 437.485
FO-29 14 Dec 19:38:00 19:42:42 19° 85° (E) 19:47:00 435.910
STRAND 1 14 Dec 19:41:21 19:46:17 48° 99° (E) 19:51:11 437.568
XW-2A 14 Dec 19:41:59 19:45:16 55° 260° (W) 19:48:36 145.665 - 145.685
PCSat 14 Dec 19:47:22 19:52:44 64° 305° (NW) 19:58:09 145.827
ZACube-1 14 Dec 19:50:58 19:55:06 82° 259° (W) 19:59:17 437.345
SEEDS 14 Dec 19:52:47 19:56:13 24° 266° (W) 19:59:40 437.485
Oscar 11 14 Dec 20:10:29 20:14:47 87° 253° (WSW) 20:19:10 .
AAUSAT CUBESAT 2 14 Dec 20:11:22 20:15:07 32° 264° (W) 20:18:55 437.432
HO-68 14 Dec 20:14:11 20:19:21 21° 270° (W) 20:24:34 435.675
BEESAT 2 14 Dec 20:14:59 20:16:16 11° 109° (ESE) 20:17:34 435.950
EO-88 14 Dec 20:20:31 20:21:27 11° 62° (ENE) 20:22:23 145.990 - 145.960
AO-73 14 Dec 20:25:21 20:29:12 38° 263° (W) 20:33:06 145.935
RS-15 14 Dec 20:46:06 20:56:32 31° 14° (NNE) 21:06:32 29.354- 29.394
UNISAT 6 14 Dec 21:01:13 21:02:36 11° 89° (E) 21:03:59 437.425
BEESAT 3 14 Dec 21:09:31 21:13:27 58° 308° (NW) 21:17:26 437.485
DELFI C3 14 Dec 21:12:43 21:16:43 87° 254° (WSW) 21:20:44 145.870
STRAND 1 14 Dec 21:21:08 21:25:11 24° 297° (WNW) 21:29:13 437.568
FO-29 14 Dec 21:21:37 21:28:42 78° 287° (WNW) 21:34:52 435.910
Max Valier Satellite 14 Dec 21:22:56 21:26:35 84° 77° (ENE) 21:30:17 145.860
PCSat 14 Dec 21:34:03 21:37:14 16° 327° (NNW) 21:40:27 145.827
AO-85 14 Dec 21:46:41 21:49:56 25° 114° (ESE) 21:53:20 145.980
BEESAT 2 14 Dec 21:49:21 21:53:22 77° 306° (NW) 21:57:27 435.950
EO-88 14 Dec 21:50:57 21:54:33 63° 259° (W) 21:58:12 145.990 - 145.960
ESTCUBE 1 14 Dec 22:17:50 22:21:46 30° 67° (ENE) 22:25:43 437.505/2401.250
LO-87 14 Dec 22:21:41 22:24:56 35° 71° (ENE) 22:28:11 145.935 - 145.965
TIGRISAT 14 Dec 22:32:08 22:36:29 88° 284° (WNW) 22:40:54 435.000
UNISAT 6 14 Dec 22:35:27 22:39:47 74° 286° (WNW) 22:44:12 437.425
FALCONSAT 3 14 Dec 22:36:33 22:37:27 11° 161° (SSE) 22:38:20 435.103
BEESAT 3 14 Dec 22:50:33 22:51:50 11° 329° (NNW) 22:53:07 437.485
AIST 2D 14 Dec 22:51:54 22:54:17 17° 92° (E) 22:56:38 435.315
SPROUT 14 Dec 22:56:02 22:58:57 18° 64° (ENE) 23:01:53 437.525
RS-15 14 Dec 23:00:11 23:12:03 62° 45° (NE) 23:23:14 29.354- 29.394
FO-29 14 Dec 23:08:15 23:12:28 17° 309° (NW) 23:16:26 435.910
PRISM 14 Dec 23:13:11 23:17:19 82° 103° (ESE) 23:21:23 437.425
EO-79 14 Dec 23:14:32 23:15:30 11° 88° (E) 23:16:27 145.935-145.965
SO-50 14 Dec 23:22:06 23:26:15 31° 43° (NE) 23:30:25 436.795
AO-85 14 Dec 23:26:30 23:30:10 35° 314° (NW) 23:34:03 145.980
BEESAT 2 14 Dec 23:29:40 23:31:47 14° 326° (NW) 23:33:54 435.950
POLYITAN 1 14 Dec 23:35:48 23:38:48 19° 93° (E) 23:41:48 437.675
VELOX 1 14 Dec 23:50:36 23:54:47 42° 70° (ENE) 23:59:00 145.980
ESTCUBE 1 14 Dec 23:54:33 23:58:30 30° 264° (W) 00:02:31 437.505/2401.250
LO-87 14 Dec 23:56:16 23:58:27 15° 268° (W) 00:00:39 145.935 - 145.965
QB50P2 15 Dec 00:00:48 00:04:46 38° 98° (E) 00:08:42 145.880/145.840
DUCHIFAT 1 15 Dec 00:05:54 00:09:36 29° 96° (E) 00:13:16 145.980
TIGRISAT 15 Dec 00:11:42 00:12:29 10° 301° (WNW) 00:13:16 435.000
FALCONSAT 3 15 Dec 00:13:11 00:15:45 18° 176° (S) 00:18:19 435.103
AIST 2D 15 Dec 00:24:19 00:27:32 32° 289° (WNW) 00:30:43 435.315
SPROUT 15 Dec 00:30:25 00:34:30 46° 261° (W) 00:38:37 437.525
UKube-1 15 Dec 00:31:26 00:34:14 17° 62° (ENE) 00:37:04 .
NANOSAT C BR1 15 Dec 00:32:05 00:36:17 67° 102° (ESE) 00:40:28 145.865
DX 1 15 Dec 00:46:02 00:50:03 36° 69° (ENE) 00:54:04 434.975-435.025
BUGSAT 1 15 Dec 00:46:21 00:49:18 19° 93° (E) 00:52:15 437.445
EO-79 15 Dec 00:47:32 00:51:45 74° 285° (WNW) 00:55:57 145.935-145.965
PRISM 15 Dec 00:50:55 00:51:55 11° 301° (WNW) 00:52:56 437.425
50 SAT 15 Dec 01:02:25 01:05:28 48° 74° (ENE) 01:08:34 437.505
SO-50 15 Dec 01:02:25 01:06:49 42° 242° (WSW) 01:11:16 436.795
POLYITAN 1 15 Dec 01:10:46 01:14:46 42° 289° (WNW) 01:18:44 437.675
RS-15 15 Dec 01:13:17 01:24:07 46° 250° (WSW) 01:34:28 29.354- 29.394
AO-91 15 Dec 01:16:54 01:19:16 17° 93° (E) 01:21:34 145.960
YUBILEINY 15 Dec 01:19:17 01:21:58 12° 70° (ENE) 01:24:39 435.215
VELOX 1 15 Dec 01:28:02 01:31:24 21° 267° (W) 01:34:47 145.980
QB50P2 15 Dec 01:37:06 01:40:19 22° 295° (WNW) 01:43:32 145.880/145.840
Oscar 19 15 Dec 01:39:49 01:44:46 42° 98° (E) 01:49:41 437.125/150
DUCHIFAT 1 15 Dec 01:41:39 01:45:09 26° 293° (WNW) 01:48:39 145.980
MOZHAYETS 4 15 Dec 01:49:03 01:52:40 24° 65° (ENE) 01:56:19
FALCONSAT 3 15 Dec 01:51:55 01:54:07 15° 192° (SSW) 01:56:20 435.103
UKube-1 15 Dec 02:05:37 02:09:51 53° 259° (W) 02:14:06 .
NANOSAT C BR1 15 Dec 02:09:24 02:11:27 13° 299° (WNW) 02:13:31 145.865
BEESAT 15 Dec 02:11:23 02:15:28 30° 66° (ENE) 02:19:35 436.000
BUGSAT 1 15 Dec 02:21:03 02:24:47 37° 290° (WNW) 02:28:32 437.445
DX 1 15 Dec 02:22:47 02:26:18 23° 266° (W) 02:29:50 434.975-435.025
Gurwin Techsat 1B 15 Dec 02:23:12 02:28:33 75° 104° (ESE) 02:33:51 435.225
ITUPSAT 1 15 Dec 02:39:15 02:43:51 52° 71° (ENE) 02:48:29 437.325
PCSat 15 Dec 02:50:14 02:55:00 30° 45° (NE) 02:59:43 145.827
AO-91 15 Dec 02:52:51 02:55:52 27° 291° (WNW) 02:58:46 145.960
ITAMSAT 1 15 Dec 02:54:46 02:56:38 12° 88° (E) 02:58:31 435.822/435.867
YUBILEINY 15 Dec 03:08:10 03:16:46 62° 92° (E) 03:25:27 435.215
CUBESAT XI-V 15 Dec 03:12:09 03:16:28 40° 70° (ENE) 03:20:52 437.345
Oscar 19 15 Dec 03:19:31 03:23:53 28° 296° (WNW) 03:28:15 437.125/150
M-CUBED/EXP-1 PRIME 15 Dec 03:22:13 03:25:34 20° 97° (E) 03:28:46 437.505
MOZHAYETS 4 15 Dec 03:25:21 03:29:36 39° 262° (W) 03:33:55
KKS-1 15 Dec 03:37:33 03:40:19 16° 61° (ENE) 03:43:06 437.445
AO-7 15 Dec 03:41:13 03:49:21 51° 101° (ESE) 03:57:24 .
BEESAT 3 15 Dec 03:47:17 03:50:19 20° 40° (NE) 03:53:19 437.485
BEESAT 15 Dec 03:48:52 03:53:09 33° 263° (W) 03:57:28 436.000
Gurwin Techsat 1B 15 Dec 04:04:28 04:07:53 18° 302° (WNW) 04:11:16 435.225
ITUPSAT 1 15 Dec 04:18:39 04:21:58 19° 268° (W) 04:25:20 437.325
STARS 15 Dec 04:19:23 04:22:17 18° 62° (ENE) 04:25:12 437.465
BEESAT 2 15 Dec 04:28:07 04:30:56 18° 38° (NE) 04:33:42 435.950
ITAMSAT 1 15 Dec 04:31:37 04:36:49 90° 203° (SSW) 04:42:00 435.822/435.867
PCSat 15 Dec 04:33:24 04:38:39 51° 245° (WSW) 04:43:52 145.827
AO-85 15 Dec 04:35:30 04:37:23 12° 29° (NNE) 04:39:18 145.980
CUBESAT XI-V 15 Dec 04:50:13 04:53:59 24° 267° (W) 04:57:46 437.345
M-CUBED/EXP-1 PRIME 15 Dec 04:55:48 05:00:09 46° 295° (WNW) 05:04:16 437.505
YUBILEINY 15 Dec 05:06:22 05:14:07 33° 293° (WNW) 05:21:57 435.215
KKS-1 15 Dec 05:12:00 05:16:25 60° 258° (WSW) 05:20:50 437.445
STRAND 1 15 Dec 05:23:34 05:25:46 13° 56° (NE) 05:27:59 437.568
BEESAT 3 15 Dec 05:24:17 05:28:07 51° 240° (WSW) 05:31:52 437.485
XW-2F 15 Dec 05:27:16 05:28:08 11° 89° (E) 05:28:59 145.980 - 146.000
DOVE 4 15 Dec 05:30:25 05:34:59 79° 102° (ESE) 05:39:16 437.250
XW-2C 15 Dec 05:41:25 05:44:02 17° 92° (E) 05:46:39 145.795 - 145.815
